Notices

Please take our survey and provide feedback: https://eccc.sondage-survey.ca/f/LanguageSelection.aspx?s=442ca660-fcf1-47c0-95a9-59707d6fd709

Please note that the IDF dataset is available through this link: Intensity-Duration-Frequency (IDF) Files .

Hourly Data Report for December 11, 2004

SHERBROOKE A
QUEBEC

45°26'00.000" N
71°41'00.000" W
241.40 m
7028124
71610
YSC

Download Data

Hourly Data (December 2004)
Hourly Data Report for December 11, 2004
TIME
LST
Temp Definition
°C
Dew Point Definition
°C
Rel Hum Definition
%
Precip. Amount Definition
mm

Wind Dir Definition
10's deg

Wind Spd Definition
km/h
Visibility Definition
km
Stn Press Definition
kPa
Hmdx Definition


Wind Chill Definition


Weather Definition


00:00 -1.7 -3.1 90   5 19 0.5 97.55   -7 Moderate Snow
01:00 -1.2 -3.4 85   7 22 15.0 97.41   -7 Snow
02:00 -1.1 -3.9 81   5 22 15.0 97.23   -7 Rain
03:00 -1.3 -3.7 84   5 20 15.0 97.13   -7 Freezing Rain
04:00 -1.0 -2.8 88   5 15 8.0 96.99   -6 Moderate Freezing Rain
05:00 -0.8 -2.6 88   5 19 9.7 96.89   -6 Freezing Rain
06:00 -0.8 -2.5 88   5 17 15.0 96.79   -6 Freezing Rain
07:00 -1.1 -2.8 88   5 15 8.0 96.79   -6 Freezing Rain
08:00 -1.6 -3.2 89   5 15 0.8 96.74   -6 Moderate Snow
09:00 -1.6 -3.1 89   4 13 19.3 96.71   -6 Snow
10:00 -1.5 -3.1 89   5 15 16.1 96.67   -6 Snow
11:00 -1.4 -3.1 88   5 15 9.7 96.60   -6 Snow
12:00 -1.2 -2.6 90   5 13 2.4 96.54   -5 Snow
13:00 -0.9 -2.2 91   5 11 4.8 96.47   -5 Snow
14:00 -0.9 -2.1 92   4 11 2.4 96.42   -5 Snow Pellets
15:00 -0.9 -2.2 91   4 9 0.8 96.41   -4 Moderate Snow
16:00 -1.1 -2.3 92   4 9 4.0 96.41   -4 Snow
17:00 -1.3 -2.7 90   5 9 6.4 96.42   -5 Snow
18:00 -1.5 -2.9 90   4 7 9.7 96.42   -4 Snow
19:00 -1.7 -2.9 91   6 4 1.9 96.42   -3 Snow
20:00 -1.7 -3.1 90   7 6 2.4 96.44   -4 Snow
21:00 -2.0 -3.2 91   8 4 1.4 96.46   -3 Snow
22:00 -1.9 -3.1 91     0 1.9 96.50     Snow
23:00 -1.6 -2.7 92   27 7 2.9 96.55   -4 Snow

Notes on Data Quality.

Legend

  • E = Estimated
  • M = Missing
  • NA = Not Available*
  • [empty] = Indicates an unobserved value
Date modified: